Simultaneous Nadir Overpasses (SNOs) Predictions

Prediction of SNOs between METOP-A and TERRA Satellite Orbit:

Table of predicted SNOs for the next 14.0 days since TLE Epoch: 2/18/2017
Index Date (METOP-A) Time (METOP-A) Lat,Lon (METOP-A) SZA (METOP-A ) Date (TERRA) Time (TERRA) Lat,Lon (TERRA) SZA (TERRA ) Distance(km) Time Diff (sec)
1 02/18/2017 20:03:15 81.32, -73.44 95.00 02/18/2017 20:04:07 81.32, -73.61 95.01 2.89 52
2 02/18/2017 20:53:55 -81.32, 94.04 85.00 02/18/2017 20:53:34 -81.32, 94.00 85.01 0.72 21
3 02/21/2017 15:37:37 81.31, -7.25 93.98 02/21/2017 15:38:23 81.32, -7.29 93.99 0.69 46
4 02/21/2017 16:28:17 -81.32, 160.27 86.02 02/21/2017 16:27:50 -81.32, 160.35 86.03 1.38 27
5 02/24/2017 11:11:57 81.32, 59.32 92.98 02/24/2017 11:12:38 81.32, 59.23 92.99 1.60 41
6 02/24/2017 12:02:37 -81.32,-133.13 87.02 02/24/2017 12:02:05 -81.32,-133.11 87.03 0.43 32
7 02/27/2017 06:46:19 81.31, 125.48 91.91 02/27/2017 06:46:55 81.32, 125.56 91.94 1.38 36
8 02/27/2017 07:36:59 -81.32, -66.93 88.08 02/27/2017 07:36:22 -81.32, -66.75 88.07 2.99 37
9 03/02/2017 02:20:40 81.32,-167.97 90.88 03/02/2017 02:21:12 81.32,-167.90 90.91 1.40 32




NCC Satellite Simultaneous Nadir Overpasses (SNOs) Prediction Service
